| time (UTC) | temp F | wind direction | speed MPH | gust MPH | rain 1hr in | rain 24hr in | rain mn in | humidity % | barometer mb |
| 20260902111523 | 69 | 229 | 2.0 | 0.0 | 0.00 | 0.00 | 0.02 | 71 | 1013.4 |
| 20260902110023 | 70 | 244 | 2.0 | 0.0 | 0.00 | 0.00 | 0.02 | 71 | 1013.4 |
| 20260902104526 | 69 | 215 | 4.0 | 0.0 | 0.00 | 0.00 | 0.02 | 73 | 1013.4 |
| 20260902103019 | 69 | 229 | 1.0 | 0.0 | 0.00 | 0.00 | 0.02 | 74 | 1013.4 |
| 20260902101519 | 69 | 214 | 3.0 | 0.0 | 0.00 | 0.00 | 0.02 | 75 | 1013.4 |
| 20260902100018 | 69 | 215 | 1.0 | 0.0 | 0.00 | 0.00 | 0.02 | 76 | 1013.4 |
| 20260902094516 | 68 | 192 | 1.0 | 0.0 | 0.00 | 0.00 | 0.02 | 76 | 1013.4 |
| 20260902093015 | 68 | 224 | 2.0 | 0.0 | 0.00 | 0.00 | 0.02 | 79 | 1013.4 |
| 20260902091515 | 67 | 217 | 5.0 | 0.0 | 0.00 | 0.00 | 0.02 | 78 | 1013.5 |
| 20260902090014 | 68 | 238 | 2.0 | 0.0 | 0.00 | 0.00 | 0.01 | 79 | 1013.5 |
| 20260902084516 | 67 | 225 | 2.0 | 0.0 | 0.00 | 0.00 | 0.01 | 81 | 1013.5 |
| 20260902083006 | 66 | 229 | 1.0 | 0.0 | 0.00 | 0.00 | 0.01 | 83 | 1013.5 |
| 20260902081504 | 65 | 227 | 1.0 | 0.0 | 0.00 | 0.00 | 0.01 | 84 | 1013.4 |
| 20260902080002 | 64 | 244 | 1.0 | 0.0 | 0.00 | 0.00 | 0.01 | 86 | 1013.5 |
| 20260902074612 | 64 | 238 | 1.0 | 0.0 | 0.00 | 0.00 | 0.01 | 87 | 1013.4 |
| 20260902073057 | 63 | 219 | 2.0 | 0.0 | 0.00 | 0.00 | 0.01 | 88 | 1013.3 |
| 20260902071557 | 63 | 227 | 2.0 | 0.0 | 0.00 | 0.00 | 0.01 | 88 | 1013.2 |
| 20260902070053 | 62 | 222 | 2.0 | 0.0 | 0.00 | 0.00 | 0.01 | 89 | 1013.2 |
| 20260902064553 | 61 | 216 | 3.0 | 0.0 | 0.00 | 0.00 | 0.01 | 89 | 1013.1 |
| 20260902063110 | 61 | 225 | 2.0 | 0.0 | 0.00 | 0.00 | 0.01 | 90 | 1013.2 |
| 20260902061553 | 60 | 215 | 2.0 | 0.0 | 0.00 | 0.00 | 0.01 | 90 | 1013.1 |
| 20260902060105 | 60 | 229 | 1.0 | 0.0 | 0.00 | 0.00 | 0.01 | 90 | 1013.1 |
| 20260902054603 | 60 | 218 | 1.0 | 0.0 | 0.00 | 0.00 | 0.01 | 90 | 1013.1 |
| 20260902053047 | 60 | 221 | 1.0 | 0.0 | 0.00 | 0.00 | 0.01 | 91 | 1013.1 |
| 20260902051552 | 59 | 229 | 2.0 | 0.0 | 0.00 | 0.00 | 0.01 | 91 | 1013.1 |
| 20260902050046 | 59 | 217 | 1.0 | 0.0 | 0.00 | 0.00 | 0.01 | 91 | 1013.1 |
| 20260902044546 | 59 | 226 | 0.0 | 0.0 | 0.00 | 0.00 | 0.01 | 91 | 1013.1 |
| 20260902043105 | 59 | 240 | 0.0 | 0.0 | 0.00 | 0.00 | 0.01 | 91 | 1013.2 |
| 20260902041600 | 59 | 225 | 1.0 | 0.0 | 0.00 | 0.00 | 0.01 | 91 | 1013.1 |
| 20260902040045 | 58 | 238 | 1.0 | 0.0 | 0.00 | 0.00 | 0.01 | 91 | 1013.3 |
| 20260902034550 | 58 | 259 | 0.0 | 0.0 | 0.00 | 0.00 | 0.01 | 91 | 1013.2 |
| 20260902033046 | 58 | 226 | 1.0 | 0.0 | 0.00 | 0.00 | 0.01 | 91 | 1013.3 |
| 20260902031542 | 57 | 225 | 0.0 | 0.0 | 0.00 | 0.00 | 0.01 | 90 | 1013.4 |
| 20260902030044 | 57 | 249 | 0.0 | 0.0 | 0.00 | 0.00 | 0.01 | 90 | 1013.4 |
| 20260902024542 | 57 | 259 | 0.0 | 0.0 | 0.00 | 0.00 | 0.01 | 90 | 1013.5 |
| 20260902023041 | 56 | 280 | 0.0 | 0.0 | 0.00 | 0.00 | 0.01 | 89 | 1013.4 |
| 20260902021540 | 56 | 280 | 0.0 | 0.0 | 0.00 | 0.00 | 0.01 | 89 | 1013.4 |
| 20260902020043 | 56 | 280 | 0.0 | 0.0 | 0.00 | 0.00 | 0.01 | 88 | 1013.3 |
| 20260902014548 | 56 | 280 | 0.0 | 0.0 | 0.00 | 0.00 | 0.01 | 88 | 1013.3 |
| 20260902013043 | 56 | 280 | 0.0 | 0.0 | 0.00 | 0.00 | 0.01 | 87 | 1013.3 |
| 20260902011535 | 57 | 280 | 0.0 | 0.0 | 0.00 | 0.00 | 0.01 | 87 | 1013.2 |
| 20260902010046 | 57 | 280 | 0.0 | 0.0 | 0.00 | 0.00 | 0.01 | 86 | 1013.4 |
| 20260902004535 | 58 | 280 | 0.0 | 0.0 | 0.00 | 0.00 | 0.01 | 86 | 1013.6 |
| 20260902003106 | 58 | 267 | 0.0 | 0.0 | 0.00 | 0.00 | 0.01 | 85 | 1013.4 |
| 20260902001533 | 58 | 170 | 0.0 | 0.0 | 0.00 | 0.00 | 0.01 | 85 | 1013.5 |
| 20260902000034 | 58 | 167 | 0.0 | 0.0 | 0.00 | 0.00 | 0.00 | 84 | 1013.6 |
| 20260901234528 | 58 | 346 | 0.0 | 0.0 | 0.00 | 0.00 | 0.00 | 85 | 1013.6 |
| 20260901233027 | 58 | 240 | 0.0 | 0.0 | 0.00 | 0.00 | 0.00 | 84 | 1013.7 |
| 20260901231525 | 59 | 237 | 0.0 | 0.0 | 0.00 | 0.00 | 0.00 | 85 | 1013.7 |
| 20260901230024 | 59 | 229 | 0.0 | 0.0 | 0.00 | 0.00 | 0.00 | 85 | 1013.6 |
| 20260901224522 | 60 | 276 | 0.0 | 0.0 | 0.00 | 0.00 | 0.00 | 86 | 1013.5 |
| 20260901223020 | 60 | 286 | 0.0 | 0.0 | 0.00 | 0.00 | 0.00 | 86 | 1013.4 |
| 20260901221520 | 60 | 253 | 0.0 | 0.0 | 0.00 | 0.00 | 0.00 | 87 | 1013.3 |
| 20260901220033 | 60 | 253 | 0.0 | 0.0 | 0.00 | 0.00 | 0.00 | 87 | 1013.3 |
| 20260901214516 | 59 | 254 | 0.0 | 0.0 | 0.00 | 0.00 | 0.04 | 88 | 1013.3 |
| 20260901213015 | 59 | 330 | 0.0 | 0.0 | 0.00 | 0.00 | 0.04 | 87 | 1013.2 |
| 20260901211514 | 59 | 330 | 0.0 | 0.0 | 0.00 | 0.00 | 0.04 | 87 | 1013.1 |
| 20260901210014 | 59 | 330 | 0.0 | 0.0 | 0.00 | 0.00 | 0.04 | 86 | 1013.0 |
| 20260901204514 | 59 | 330 | 0.0 | 0.0 | 0.00 | 0.00 | 0.04 | 85 | 1013.0 |
| 20260901203011 | 60 | 330 | 0.0 | 0.0 | 0.00 | 0.00 | 0.04 | 85 | 1013.0 |
| 20260901201510 | 60 | 330 | 0.0 | 0.0 | 0.00 | 0.00 | 0.04 | 84 | 1013.0 |
| 20260901200009 | 61 | 330 | 0.0 | 0.0 | 0.00 | 0.00 | 0.04 | 83 | 1012.9 |
| 20260901194508 | 61 | 330 | 0.0 | 0.0 | 0.00 | 0.00 | 0.04 | 82 | 1012.8 |
| 20260901193008 | 62 | 330 | 0.0 | 0.0 | 0.00 | 0.00 | 0.04 | 82 | 1012.8 |
| 20260901191507 | 62 | 334 | 0.0 | 0.0 | 0.00 | 0.00 | 0.04 | 82 | 1012.6 |
| 20260901190011 | 63 | 333 | 0.0 | 0.0 | 0.00 | 0.00 | 0.04 | 83 | 1012.5 |
| 20260901184506 | 63 | 266 | 0.0 | 0.0 | 0.00 | 0.00 | 0.04 | 84 | 1012.2 |
| 20260901183002 | 63 | 248 | 0.0 | 0.0 | 0.00 | 0.00 | 0.04 | 84 | 1012.2 |
| 20260901181502 | 64 | 244 | 0.0 | 0.0 | 0.00 | 0.00 | 0.04 | 83 | 1012.0 |
| 20260901180100 | 64 | 220 | 0.0 | 0.0 | 0.00 | 0.00 | 0.04 | 83 | 1011.9 |
| 20260901174601 | 65 | 220 | 0.0 | 0.0 | 0.00 | 0.00 | 0.04 | 81 | 1011.7 |
| 20260901173058 | 66 | 225 | 0.0 | 0.0 | 0.00 | 0.00 | 0.04 | 80 | 1011.7 |
| 20260901171629 | 67 | 232 | 0.0 | 0.0 | 0.00 | 0.00 | 0.04 | 79 | 1011.6 |
| 20260901170105 | 67 | 229 | 0.0 | 0.0 | 0.00 | 0.00 | 0.03 | 78 | 1011.6 |
| 20260901164612 | 68 | 236 | 0.0 | 0.0 | 0.00 | 0.00 | 0.03 | 76 | 1011.5 |
| 20260901163114 | 68 | 233 | 0.0 | 0.0 | 0.00 | 0.00 | 0.03 | 77 | 1011.5 |
| 20260901161556 | 69 | 210 | 0.0 | 0.0 | 0.00 | 0.00 | 0.03 | 75 | 1011.5 |
| 20260901160053 | 69 | 252 | 0.0 | 0.0 | 0.00 | 0.00 | 0.03 | 75 | 1011.4 |
| 20260901154556 | 69 | 249 | 0.0 | 0.0 | 0.00 | 0.00 | 0.03 | 77 | 1011.3 |
| 20260901153051 | 69 | 227 | 0.0 | 0.0 | 0.00 | 0.00 | 0.03 | 78 | 1011.3 |
| 20260901151551 | 70 | 259 | 0.0 | 0.0 | 0.00 | 0.00 | 0.03 | 75 | 1011.3 |
| 20260901150050 | 71 | 231 | 0.0 | 0.0 | 0.00 | 0.00 | 0.03 | 73 | 1011.2 |
| 20260901144549 | 71 | 230 | 0.0 | 0.0 | 0.00 | 0.00 | 0.03 | 73 | 1011.0 |
| 20260901143047 | 72 | 262 | 0.0 | 0.0 | 0.00 | 0.00 | 0.03 | 72 | 1011.0 |
| 20260901141548 | 72 | 234 | 0.0 | 0.0 | 0.00 | 0.00 | 0.03 | 72 | 1011.0 |
| 20260901140056 | 72 | 337 | 0.0 | 0.0 | 0.00 | 0.00 | 0.03 | 72 | 1011.0 |
| 20260901134551 | 72 | 215 | 0.0 | 0.0 | 0.00 | 0.00 | 0.03 | 72 | 1010.9 |
| 20260901133059 | 72 | 215 | 0.0 | 0.0 | 0.00 | 0.00 | 0.03 | 71 | 1010.8 |
| 20260901131547 | 72 | 240 | 0.0 | 0.0 | 0.00 | 0.00 | 0.03 | 72 | 1010.8 |
| 20260901130044 | 72 | 240 | 0.0 | 0.0 | 0.00 | 0.00 | 0.03 | 71 | 1010.9 |
| 20260901124541 | 72 | 224 | 0.0 | 0.0 | 0.00 | 0.00 | 0.03 | 73 | 1010.9 |
| 20260901123041 | 71 | 250 | 0.0 | 0.0 | 0.00 | 0.00 | 0.03 | 73 | 1010.9 |
| 20260901121546 | 71 | 253 | 0.0 | 0.0 | 0.00 | 0.00 | 0.02 | 74 | 1010.8 |
| 20260901120038 | 71 | 248 | 0.0 | 0.0 | 0.00 | 0.00 | 0.02 | 76 | 1011.0 |
| 20260901114534 | 70 | 246 | 0.0 | 0.0 | 0.00 | 0.00 | 0.02 | 76 | 1010.9 |
| 20260901113032 | 70 | 240 | 0.0 | 0.0 | 0.00 | 0.00 | 0.02 | 78 | 1010.9 |